Forside
METAR-TAF:

METAR-TAF

Lufthavne :

Marshfield Municipal Airport

Marshfield, Wisconsin, USA

Breddekreds: 44-38-17N, længdekreds: 090-11-15W, højde: 389 m

Aktuelle vejr

Denne rapport blev lavet for 45 minutter siden, kl. 15:54 UTC
Vind 7 kt fra nordnordvest
Temperatur 24°C
Fugtighed 57%
Tryk 1020 hPa
Sigt: 9.7 km
skyfri
tåge/dis

METAR: KMFI 031554Z AUTO 33007KT 6SM HZ CLR 24/15 A3011 RMK AO2 SLP194 T02390150

Tid: 11:39 (16:39 UTC)


TAF: fraværende

Vejrobservationer og prognoser fra mere end 4000 lufthavne (METAR og TAF).

De gule og røde prikker repræsenterer de meteorologiske stationer.

Flyt musen over at se navnet på stationen.

Så klik over at se vejr observationer og prognoser.

At skifte det kort: Klik på de grønne knapper med et sort kors for at zoome ind; på den grønne knap med en bindestreg for at zoome ud; eller på de grønne pile for tilstødende kort.


METAR-TAF: